DW4799 Weather Reports


time (UTC)temp
C
wind
direction
speed
KPH
gust
KPH
rain 1hr
cm
rain 24hr
cm
rain mn
cm
humidity
%
barometer
mb
20190420071705 16 101 4.8 11.3 0.00 0.00 0.00 41 1028.1
20190420071205 15 122 4.8 11.3 0.00 0.00 0.00 43 1028.0
20190420070704 15 101 4.8 11.3 0.00 0.00 0.00 45 1028.1
20190420070205 14 115 3.2 8.0 0.00 0.00 0.00 48 1028.1
20190420065704 13 111 1.6 8.0 0.00 0.00 0.00 50 1028.0
20190420065204 13 79 3.2 8.0 0.00 0.00 0.00 52 1028.1
20190420064705 12 109 1.6 8.0 0.00 0.00 0.00 53 1028.1
20190420064205 11 107 3.2 8.0 0.00 0.00 0.00 55 1028.2
20190420063704 11 116 3.2 8.0 0.00 0.00 0.00 59 1028.2
20190420063205 10 100 3.2 8.0 0.00 0.00 0.00 61 1028.2
20190420062705 8 117 1.6 8.0 0.00 0.00 0.00 65 1028.2
20190420062205 8 117 0.0 8.0 0.00 0.00 0.00 70 1028.1
20190420061704 7 117 0.0 1.6 0.00 0.00 0.00 73 1028.1
20190420061205 6 172 0.0 1.6 0.00 0.00 0.00 75 1028.0
20190420060705 6 171 0.0 4.8 0.00 0.00 0.00 78 1028.1
20190420060205 5 172 0.0 6.4 0.00 0.00 0.00 80 1028.1
20190420054704 4 138 1.6 6.4 0.00 0.00 0.00 81 1028.0
20190420054205 3 169 0.0 3.2 0.00 0.00 0.00 82 1028.0
20190420053705 3 169 0.0 3.2 0.00 0.00 0.00 83 1028.0
20190420053206 2 169 0.0 1.6 0.00 0.00 0.00 84 1028.1
20190420052705 2 169 0.0 0.0 0.00 0.00 0.00 84 1028.1
20190420052205 2 169 0.0 0.0 0.00 0.00 0.00 84 1028.1
20190420051704 2 169 0.0 0.0 0.00 0.00 0.00 83 1028.1
20190420051205 2 169 0.0 0.0 0.00 0.00 0.00 82 1028.1
20190420050704 2 169 0.0 0.0 0.00 0.00 0.00 82 1028.1
20190420050205 2 169 0.0 1.6 0.00 0.00 0.00 82 1028.0
20190420045704 2 168 0.0 1.6 0.00 0.00 0.00 82 1028.0
20190420045205 2 169 0.0 1.6 0.00 0.00 0.00 82 1027.9
20190420044704 2 169 0.0 1.6 0.00 0.00 0.00 82 1028.0
20190420044205 2 169 0.0 0.0 0.00 0.00 0.00 81 1027.9
20190420043705 2 169 0.0 0.0 0.00 0.00 0.00 81 1027.9
20190420043205 2 168 0.0 0.0 0.00 0.00 0.00 80 1028.0
20190420042704 2 169 0.0 0.0 0.00 0.00 0.00 79 1027.9
20190420042205 2 169 0.0 0.0 0.00 0.00 0.00 79 1027.9
20190420041704 2 169 0.0 0.0 0.00 0.00 0.00 79 1027.9
20190420041205 2 169 0.0 1.6 0.00 0.00 0.00 79 1027.8
20190420040705 3 169 0.0 1.6 0.00 0.00 0.00 78 1027.8
20190420040205 3 169 0.0 1.6 0.00 0.00 0.00 78 1027.8
20190420035705 3 169 0.0 1.6 0.00 0.00 0.00 78 1027.8
20190420035204 3 169 0.0 0.0 0.00 0.00 0.00 78 1027.8
20190420034705 3 169 0.0 0.0 0.00 0.00 0.00 78 1027.8
20190420034205 3 169 0.0 0.0 0.00 0.00 0.00 77 1027.8
20190420033705 3 169 0.0 0.0 0.00 0.00 0.00 77 1027.8
20190420033205 3 169 0.0 1.6 0.00 0.00 0.00 77 1027.7
20190420032704 3 169 0.0 1.6 0.00 0.00 0.00 77 1027.7
20190420032205 3 169 0.0 3.2 0.00 0.00 0.00 77 1027.7
20190420031705 3 169 0.0 3.2 0.00 0.00 0.00 77 1027.7
20190420031205 3 169 0.0 4.8 0.00 0.00 0.00 77 1027.7
20190420030704 3 169 0.0 4.8 0.00 0.00 0.00 77 1027.7
20190420030205 3 167 1.6 3.2 0.00 0.00 0.00 77 1027.6
20190420025705 3 163 0.0 3.2 0.00 0.00 0.00 78 1027.7
20190420025205 3 163 0.0 4.8 0.00 0.00 0.00 78 1027.7
20190420024704 3 163 0.0 4.8 0.00 0.00 0.00 78 1027.8
20190420024205 3 163 1.6 4.8 0.00 0.00 0.00 78 1027.8
20190420023704 3 163 1.6 4.8 0.00 0.00 0.00 78 1027.8
20190420023205 3 161 0.0 1.6 0.00 0.00 0.00 78 1027.8
20190420022705 3 161 0.0 3.2 0.00 0.00 0.00 78 1027.8
20190420022205 3 161 0.0 3.2 0.00 0.00 0.00 78 1027.8
20190420021704 3 161 0.0 3.2 0.00 0.00 0.00 78 1027.8
20190420021205 4 161 0.0 1.6 0.00 0.00 0.00 78 1027.8
20190420020704 4 161 0.0 1.6 0.00 0.00 0.00 77 1027.8
20190420020205 4 161 0.0 0.0 0.00 0.00 0.00 75 1027.8
20190420015705 4 161 0.0 0.0 0.00 0.00 0.00 75 1027.8
20190420015205 4 161 0.0 0.0 0.00 0.00 0.00 75 1027.8
20190420014705 4 161 0.0 0.0 0.00 0.00 0.00 74 1027.8
20190420014205 4 161 0.0 0.0 0.00 0.00 0.00 74 1027.7
20190420013705 4 161 0.0 0.0 0.00 0.00 0.00 74 1027.7
20190420013205 5 161 0.0 0.0 0.00 0.00 0.00 74 1027.7
20190420012704 5 161 0.0 0.0 0.00 0.00 0.00 74 1027.7
20190420012205 5 161 0.0 0.0 0.00 0.00 0.00 74 1027.7
20190420011704 5 161 0.0 0.0 0.00 0.00 0.00 74 1027.8
20190420011205 5 161 0.0 0.0 0.00 0.00 0.00 74 1027.8
20190420010705 5 161 0.0 1.6 0.00 0.00 0.00 73 1027.8
20190420010205 5 161 0.0 1.6 0.00 0.00 0.00 73 1027.8
20190420005705 5 161 0.0 1.6 0.00 0.00 0.00 73 1027.8
20190420005205 5 161 0.0 1.6 0.00 0.00 0.00 73 1027.8
20190420004705 5 161 0.0 1.6 0.00 0.00 0.00 73 1027.9
20190420004205 5 161 0.0 1.6 0.00 0.00 0.00 72 1027.9
20190420003705 5 161 0.0 1.6 0.00 0.00 0.00 72 1027.9
20190420003204 6 161 0.0 3.2 0.00 0.00 0.00 71 1027.9
20190420002705 6 161 1.6 3.2 0.00 0.00 0.00 70 1028.0
20190420002204 6 161 1.6 3.2 0.00 0.00 0.00 69 1028.0
20190420001704 6 161 1.6 3.2 0.00 0.00 0.00 69 1028.0
20190420001204 6 161 0.0 1.6 0.00 0.00 0.00 70 1028.1
20190420000705 6 161 0.0 0.0 0.00 0.00 0.00 70 1028.1
20190420000205 6 161 0.0 0.0 0.00 0.00 0.00 70 1028.2
20190419235705 6 161 0.0 0.0 0.00 0.00 0.00 69 1028.1
20190419235205 6 161 0.0 0.0 0.00 0.00 0.00 68 1028.1
20190419234705 7 161 0.0 0.0 0.00 0.00 0.00 68 1028.1
20190419234204 7 161 0.0 0.0 0.00 0.00 0.00 67 1028.1
20190419233705 7 161 0.0 0.0 0.00 0.00 0.00 66 1028.1
20190419233205 7 161 0.0 0.0 0.00 0.00 0.00 65 1028.1
20190419232705 7 161 0.0 0.0 0.00 0.00 0.00 64 1028.1
20190419232204 7 162 0.0 0.0 0.00 0.00 0.00 64 1028.1
20190419231705 7 161 0.0 0.0 0.00 0.00 0.00 65 1028.1
20190419231204 7 161 0.0 0.0 0.00 0.00 0.00 63 1028.1
20190419230704 8 161 0.0 0.0 0.00 0.00 0.00 63 1028.1
20190419230204 8 161 0.0 0.0 0.00 0.00 0.00 63 1028.0
20190419225705 8 161 0.0 0.0 0.00 0.00 0.00 62 1028.1
20190419225205 8 161 0.0 0.0 0.00 0.00 0.00 61 1028.0
20190419224704 8 161 0.0 0.0 0.00 0.00 0.00 62 1028.0
20190419224205 8 161 0.0 0.0 0.00 0.00 0.00 62 1028.0
20190419223704 8 161 0.0 0.0 0.00 0.00 0.00 60 1028.1
20190419223205 9 161 0.0 0.0 0.00 0.00 0.00 60 1028.1
20190419222704 9 161 0.0 0.0 0.00 0.00 0.00 59 1028.1
20190419222205 9 161 0.0 0.0 0.00 0.00 0.00 59 1028.0
20190419221704 10 161 0.0 0.0 0.00 0.00 0.00 58 1028.0
20190419221204 10 161 0.0 0.0 0.00 0.00 0.00 56 1028.1
20190419220704 10 161 0.0 0.0 0.00 0.00 0.00 56 1028.1
20190419220205 10 161 0.0 0.0 0.00 0.00 0.00 57 1028.1
20190419215705 10 161 0.0 0.0 0.00 0.00 0.00 54 1028.1
20190419215205 11 161 0.0 0.0 0.00 0.00 0.00 54 1028.1
20190419214705 11 161 0.0 0.0 0.00 0.00 0.00 53 1028.1
20190419214205 11 161 0.0 0.0 0.00 0.00 0.00 52 1028.1
20190419213705 11 161 0.0 0.0 0.00 0.00 0.00 52 1028.0
20190419213205 11 161 0.0 0.0 0.00 0.00 0.00 52 1028.0
20190419212704 12 161 0.0 3.2 0.00 0.00 0.00 51 1028.0
20190419212205 12 161 0.0 3.2 0.00 0.00 0.00 50 1028.0
20190419211705 12 161 0.0 3.2 0.00 0.00 0.00 49 1028.0
20190419211205 12 162 0.0 3.2 0.00 0.00 0.00 49 1028.0
20190419210704 12 161 0.0 1.6 0.00 0.00 0.00 49 1027.9
20190419210205 13 161 0.0 3.2 0.00 0.00 0.00 47 1027.9
20190419205704 13 161 0.0 3.2 0.00 0.00 0.00 47 1027.8
20190419205205 13 161 0.0 3.2 0.00 0.00 0.00 46 1027.8
20190419204704 13 161 1.6 3.2 0.00 0.00 0.00 46 1027.8
20190419204205 13 161 1.6 3.2 0.00 0.00 0.00 45 1027.7
20190419203704 14 153 0.0 4.8 0.00 0.00 0.00 44 1027.7
20190419203204 14 153 0.0 4.8 0.00 0.00 0.00 44 1027.6
20190419202705 14 153 1.6 4.8 0.00 0.00 0.00 44 1027.6
20190419202205 15 132 1.6 6.4 0.00 0.00 0.00 42 1027.6
20190419201704 15 111 1.6 6.4 0.00 0.00 0.00 41 1027.6
20190419201205 15 124 1.6 6.4 0.00 0.00 0.00 41 1027.6
20190419200704 15 123 1.6 8.0 0.00 0.00 0.00 41 1027.6
20190419200205 15 139 1.6 8.0 0.00 0.00 0.00 41 1027.6
20190419195704 15 126 1.6 8.0 0.00 0.00 0.00 40 1027.6
20190419195205 15 111 1.6 4.8 0.00 0.00 0.00 40 1027.6
20190419194705 15 117 1.6 8.0 0.00 0.00 0.00 39 1027.5
20190419194205 15 122 1.6 9.7 0.00 0.00 0.00 39 1027.6
20190419193704 16 115 3.2 9.7 0.00 0.00 0.00 39 1027.5
20190419193205 16 109 3.2 9.7 0.00 0.00 0.00 39 1027.5
20190419192704 16 125 3.2 9.7 0.00 0.00 0.00 39 1027.4
20190419192205 16 136 4.8 9.7 0.00 0.00 0.00 39 1027.4
20190419191705 16 140 4.8 9.7 0.00 0.00 0.00 38 1027.4
20190419191204 16 112 3.2 8.0 0.00 0.00 0.00 38 1027.4
20190419190705 16 126 1.6 9.7 0.00 0.00 0.00 38 1027.3
20190419190205 16 88 3.2 9.7 0.00 0.00 0.00 38 1027.3
20190419185704 16 118 3.2 8.0 0.00 0.00 0.00 38 1027.2
20190419185205 16 109 3.2 8.0 0.00 0.00 0.00 38 1027.3
20190419184705 17 121 3.2 8.0 0.00 0.00 0.00 38 1027.1
20190419184205 17 132 1.6 9.7 0.00 0.00 0.00 38 1027.1
20190419183705 17 107 3.2 11.3 0.00 0.00 0.00 38 1027.1
20190419183205 17 115 4.8 11.3 0.00 0.00 0.00 37 1027.0
20190419182704 17 93 4.8 11.3 0.00 0.00 0.00 37 1027.0
20190419182205 17 118 3.2 9.7 0.00 0.00 0.00 37 1027.0
20190419181704 18 89 3.2 8.0 0.00 0.00 0.00 37 1026.9
20190419181205 18 121 3.2 11.3 0.00 0.00 0.00 37 1026.8
20190419180705 18 115 3.2 11.3 0.00 0.00 0.00 36 1026.8
20190419180206 18 124 3.2 11.3 0.00 0.00 0.00 36 1026.8
20190419175704 18 108 4.8 11.3 0.00 0.00 0.00 36 1026.7
20190419175204 19 125 4.8 11.3 0.00 0.00 0.00 36 1026.7
20190419174705 19 73 6.4 12.9 0.00 0.00 0.00 35 1026.8
20190419174205 19 142 6.4 12.9 0.00 0.00 0.00 35 1026.6
20190419173705 20 113 4.8 12.9 0.00 0.00 0.00 36 1026.6
20190419173205 20 84 4.8 11.3 0.00 0.00 0.00 36 1026.6
20190419172705 20 139 4.8 12.9 0.00 0.00 0.00 36 1026.5
20190419172206 20 138 6.4 17.7 0.00 0.00 0.00 36 1026.5
20190419171704 20 118 8.0 17.7 0.00 0.00 0.00 35 1026.5
20190419171204 20 94 6.4 12.9 0.00 0.00 0.00 35 1026.4
20190419170705 20 127 4.8 12.9 0.00 0.00 0.00 35 1026.4
20190419170205 21 89 3.2 14.5 0.00 0.00 0.00 36 1026.4
20190419165704 21 125 4.8 17.7 0.00 0.00 0.00 36 1026.3
20190419165204 21 86 6.4 17.7 0.00 0.00 0.00 35 1026.3
20190419164705 21 115 4.8 17.7 0.00 0.00 0.00 35 1026.3
20190419164204 21 125 4.8 17.7 0.00 0.00 0.00 35 1026.4
20190419163705 21 104 4.8 17.7 0.00 0.00 0.00 35 1026.3
20190419163205 21 38 6.4 19.3 0.00 0.00 0.00 34 1026.2
20190419162704 21 69 8.0 19.3 0.00 0.00 0.00 34 1026.2
20190419162206 21 73 6.4 19.3 0.00 0.00 0.00 34 1026.3
20190419161705 21 94 4.8 12.9 0.00 0.00 0.00 35 1026.3
20190419161204 22 87 4.8 11.3 0.00 0.00 0.00 34 1026.3
20190419160705 22 49 4.8 12.9 0.00 0.00 0.00 35 1026.3
20190419160205 22 111 4.8 14.5 0.00 0.00 0.00 35 1026.2
20190419155705 22 195 4.8 14.5 0.00 0.00 0.00 34 1026.2
20190419155205 22 98 6.4 14.5 0.00 0.00 0.00 33 1026.2
20190419154705 22 106 6.4 12.9 0.00 0.00 0.00 32 1026.2
20190419154205 22 122 4.8 17.7 0.00 0.00 0.00 33 1026.2
20190419153704 22 192 4.8 17.7 0.00 0.00 0.00 33 1026.2
20190419153205 22 94 6.4 17.7 0.00 0.00 0.00 33 1026.2
20190419152705 22 100 4.8 16.1 0.00 0.00 0.00 33 1026.2
20190419152205 22 127 4.8 12.9 0.00 0.00 0.00 33 1026.2
20190419151705 22 122 4.8 16.1 0.00 0.00 0.00 30 1026.2
20190419151204 22 121 6.4 16.1 0.00 0.00 0.00 31 1026.3
20190419150705 22 184 8.0 17.7 0.00 0.00 0.00 29 1026.4
20190419150205 22 169 8.0 20.9 0.00 0.00 0.00 30 1026.3
20190419145704 23 179 8.0 20.9 0.00 0.00 0.00 30 1026.3
20190419145204 23 127 8.0 19.3 0.00 0.00 0.00 29 1026.3
20190419144705 23 203 6.4 12.9 0.00 0.00 0.00 29 1026.3
20190419144204 23 204 6.4 17.7 0.00 0.00 0.00 28 1026.4
20190419143704 23 112 6.4 17.7 0.00 0.00 0.00 27 1026.5
20190419143205 23 162 8.0 17.7 0.00 0.00 0.00 29 1026.4
20190419142705 23 122 8.0 20.9 0.00 0.00 0.00 28 1026.4
20190419142205 23 165 9.7 20.9 0.00 0.00 0.00 28 1026.5
20190419141705 23 181 11.3 20.9 0.00 0.00 0.00 27 1026.5
20190419141205 23 163 8.0 20.9 0.00 0.00 0.00 27 1026.6
20190419140705 23 161 6.4 14.5 0.00 0.00 0.00 28 1026.6
20190419140205 23 65 6.4 20.9 0.00 0.00 0.00 27 1026.6
20190419135705 23 136 6.4 20.9 0.00 0.00 0.00 28 1026.8
20190419135204 23 112 9.7 25.7 0.00 0.00 0.00 28 1026.8
20190419134705 23 148 11.3 25.7 0.00 0.00 0.00 27 1026.7
20190419134205 23 155 11.3 25.7 0.00 0.00 0.00 27 1026.8
20190419133705 23 194 9.7 24.1 0.00 0.00 0.00 27 1026.9
20190419133205 23 169 9.7 17.7 0.00 0.00 0.00 28 1027.0
20190419132704 23 190 9.7 20.9 0.00 0.00 0.00 29 1027.0
20190419132205 23 170 8.0 22.5 0.00 0.00 0.00 29 1027.2
20190419131705 22 151 9.7 22.5 0.00 0.00 0.00 30 1027.1
20190419131205 22 118 11.3 22.5 0.00 0.00 0.00 29 1027.3
20190419130704 22 169 9.7 22.5 0.00 0.00 0.00 29 1027.2
20190419130205 22 153 11.3 22.5 0.00 0.00 0.00 28 1027.3
20190419125704 22 158 9.7 25.7 0.00 0.00 0.00 29 1027.3
20190419125204 22 125 11.3 25.7 0.00 0.00 0.00 31 1027.4
20190419124705 22 131 11.3 19.3 0.00 0.00 0.00 28 1027.5
20190419124205 22 155 9.7 17.7 0.00 0.00 0.00 29 1027.5
20190419123704 22 111 8.0 24.1 0.00 0.00 0.00 28 1027.5
20190419123205 22 181 11.3 24.1 0.00 0.00 0.00 30 1027.5
20190419122705 22 152 9.7 24.1 0.00 0.00 0.00 31 1027.6
20190419122204 22 138 8.0 24.1 0.00 0.00 0.00 29 1027.6
20190419121705 22 127 11.3 24.1 0.00 0.00 0.00 29 1027.6
20190419121205 22 163 11.3 20.9 0.00 0.00 0.00 29 1027.6
20190419120705 22 190 9.7 22.5 0.00 0.00 0.00 30 1027.6
20190419120205 22 148 9.7 22.5 0.00 0.00 0.00 29 1027.7
20190419115705 22 129 9.7 22.5 0.00 0.00 0.00 30 1027.8
20190419115204 22 109 9.7 25.7 0.00 0.00 0.00 31 1027.7
20190419114705 22 121 9.7 25.7 0.00 0.00 0.00 30 1027.8
20190419114205 22 117 9.7 24.1 0.00 0.00 0.00 29 1027.8
20190419113704 22 134 11.3 24.1 0.00 0.00 0.00 30 1027.8
20190419113204 21 97 11.3 24.1 0.00 0.00 0.00 30 1027.7
20190419112705 21 115 11.3 25.7 0.00 0.00 0.00 30 1027.8
20190419112205 21 202 11.3 25.7 0.00 0.00 0.00 30 1027.8
20190419111705 21 165 11.3 24.1 0.00 0.00 0.00 32 1027.9
20190419111204 21 181 9.7 27.4 0.00 0.00 0.00 31 1027.8
20190419110704 21 133 11.3 27.4 0.00 0.00 0.00 32 1027.9
20190419110205 21 106 14.5 25.7 0.00 0.00 0.00 30 1027.9
20190419105705 21 137 11.3 24.1 0.00 0.00 0.00 31 1028.0
20190419105205 21 124 9.7 25.7 0.00 0.00 0.00 31 1027.9
20190419104705 21 121 11.3 25.7 0.00 0.00 0.00 33 1027.9
20190419104205 21 136 12.9 25.7 0.00 0.00 0.00 33 1028.0
20190419103705 21 112 11.3 25.7 0.00 0.00 0.00 33 1028.1
20190419103204 21 151 11.3 25.7 0.00 0.00 0.00 35 1028.0
20190419102705 21 140 12.9 25.7 0.00 0.00 0.00 36 1028.1
20190419102205 20 136 12.9 25.7 0.00 0.00 0.00 33 1028.1
20190419101705 20 143 14.5 25.7 0.00 0.00 0.00 34 1028.1
20190419101205 20 116 12.9 24.1 0.00 0.00 0.00 33 1028.2
20190419100705 20 102 11.3 25.7 0.00 0.00 0.00 35 1028.2
20190419100205 20 165 12.9 25.7 0.00 0.00 0.00 34 1028.2
20190419095705 20 179 12.9 25.7 0.00 0.00 0.00 34 1028.2
20190419095205 20 119 12.9 30.6 0.00 0.00 0.00 36 1028.3
20190419094705 20 171 14.5 30.6 0.00 0.00 0.00 35 1028.3
20190419094204 20 171 14.5 30.6 0.00 0.00 0.00 35 1028.3
20190419093705 20 163 12.9 20.9 0.00 0.00 0.00 35 1028.3
20190419093205 20 128 9.7 22.5 0.00 0.00 0.00 35 1028.3
20190419092705 20 169 11.3 25.7 0.00 0.00 0.00 37 1028.3
20190419092205 20 167 12.9 25.7 0.00 0.00 0.00 36 1028.4
20190419091705 20 124 14.5 24.1 0.00 0.00 0.00 36 1028.4
20190419091205 20 97 12.9 24.1 0.00 0.00 0.00 37 1028.4
20190419090705 19 173 11.3 24.1 0.00 0.00 0.00 37 1028.3
20190419090205 19 173 9.7 19.3 0.00 0.00 0.00 40 1028.4
20190419085705 19 129 9.7 19.3 0.00 0.00 0.00 41 1028.4
20190419085205 19 135 9.7 19.3 0.00 0.00 0.00 39 1028.4
20190419084705 18 157 9.7 20.9 0.00 0.00 0.00 41 1028.4
20190419084205 18 117 11.3 22.5 0.00 0.00 0.00 41 1028.5
20190419083704 18 122 11.3 22.5 0.00 0.00 0.00 41 1028.5
20190419083204 18 167 9.7 22.5 0.00 0.00 0.00 41 1028.4
20190419082705 18 110 9.7 19.3 0.00 0.00 0.00 42 1028.4
20190419082204 18 166 8.0 19.3 0.00 0.00 0.00 43 1028.5
20190419081705 18 134 8.0 19.3 0.00 0.00 0.00 45 1028.5
20190419081205 18 154 8.0 16.1 0.00 0.00 0.00 44 1028.4
20190419080705 18 172 6.4 24.1 0.00 0.00 0.00 44 1028.4
20190419080205 17 158 9.7 24.1 0.00 0.00 0.00 43 1028.5
20190419075705 17 114 9.7 24.1 0.00 0.00 0.00 43 1028.4
20190419075205 17 102 6.4 11.3 0.00 0.00 0.00 43 1028.4
20190419074705 17 123 4.8 11.3 0.00 0.00 0.00 46 1028.4
20190419074205 17 113 3.2 17.7 0.00 0.00 0.00 46 1028.3
20190419073704 16 118 4.8 17.7 0.00 0.00 0.00 48 1028.3
20190419073205 16 113 6.4 17.7 0.00 0.00 0.00 47 1028.2
20190419072704 16 117 4.8 11.3 0.00 0.00 0.00 49 1028.3
20190419072204 16 94 4.8 12.9 0.00 0.00 0.00 50 1028.2